Estación Meteorológica Peña el Pijo (Robertgarden) [ 09/29/20 21:04:38 CEST ]

Fecha Hora Presion(HPa) Temp (°C) Humedad % Rocio (°C) Viento ( m/s) Direccion Lluvia 1Hora(mm) Lluvia 24H(mm) LLuvia Total(mm)
2020-May-22 01:09:26 1015.400 - - - - W     39.88
2020-May-22 02:09:24 1015.400 - - - - W     39.88
2020-May-22 03:08:53 1015.100 - - - - W     39.88
2020-May-22 04:09:43 1014.800 - - - - W     39.88
2020-May-22 05:09:04 1014.700 - - - - W     39.88
2020-May-22 06:09:11 1015.100 - - - - W     39.88
2020-May-22 07:09:27 1015.200 - - - - W     39.88
2020-May-22 08:10:01 1015.600 - - - - W     39.88
2020-May-22 09:09:40 1015.600 - - - - W     39.88
2020-May-22 10:09:44 1015.800 - - - - W     39.88
2020-May-22 11:09:14 1015.800 - - - - W     39.88
2020-May-22 12:09:21 1016.100 - - - - W     39.88
2020-May-22 13:08:56 1016.100 - - - - W     39.88
2020-May-22 14:09:22 1015.700 - - - - W     39.88
2020-May-22 15:09:33 1015.700 - - - - W     39.88
2020-May-22 16:09:29 1015.600 - - - - W     39.88
2020-May-22 17:09:01 1015.200 - - - - W     39.88
2020-May-22 18:08:48 1015.100 - - - - W     39.88
2020-May-22 19:08:56 1015.100 - - - - W     39.88
2020-May-22 20:09:12 1015.600 - - - - W     39.88
2020-May-22 21:09:31 1016.200 - - - - W     39.88
2020-May-22 22:09:02 1016.700 - - - - W     39.88
2020-May-22 23:09:18 1017.100 - - - - W     39.88

Temperatura Máxima:    Temperatura Mínima:
Presión Máxima:1017.100 Hpa    Presión Mínima:1014.700 Hpa


Volver